Location: Ida
(33.5751°N, 96.4900°W)
Time: 00:39:57
(UTC+00:00)

Hubble Space Telescope - Visible Passes

Search period start: 08 October 2024 00:00
Search period end: 18 October 2024 00:00
Orbit: 504 x 508 km, 28.5° (Epoch: 07 October)

Date Brightness Start Highest point End Pass type
(mag) Time Alt. Az. Time Alt. Az. Time Alt. Az.
14 Oct 3.1 01:33:44 10° S 01:34:18 12° S 01:34:18 12° S visible
15 Oct 2.7 01:11:52 10° SSW 01:14:07 15° SSE 01:14:10 15° SSE visible
16 Oct 2.6 00:50:02 10° SSW 00:52:31 16° SSE 00:53:57 14° SE visible
17 Oct 2.6 00:28:12 10° SSW 00:30:52 17° SSE 00:33:32 10° ESE visible
17 Oct 3.2 02:07:15 10° WSW 02:08:18 17° SW 02:08:18 17° SW visible
